Weather History for Provincetown, MA

Change the Weather History Date:

Tuesday, February 12, 2013

  Actual Average Record
Temperature  
Mean Temperature 40 °F -  
Max Temperature 44 °F 35 °F 52 °F (1955)
Min Temperature 35 °F 24 °F 12 °F (1954)
Degree Days  
Heating Degree Days 26    
Moisture  
Dew Point 31 °F    
Average Humidity 72    
Maximum Humidity 93    
Minimum Humidity 53    
Precipitation  
Precipitation 0.01 in - - ()
Sea Level Pressure  
Sea Level Pressure 29.72 in    
Wind  
Wind Speed 13 mph (West)    
Max Wind Speed 23 mph    
Max Gust Speed 34 mph    
Visibility 9 miles    
Events      
Averages and records for this station are not official NWS values.
T = Trace of Precipitation, MM = Missing Value Source: NWS Daily Summary

Daily Weather History Graph

Daily Weather History Graph

Search for Another Location

Airport:

Trip Planner

Search our weather history database for the weather conditions in past years. The results will help you decide how hot, cold, wet, or windy it might be!

Date:

Astronomy

Feb. 12, 2013 Rise Set
Actual Time 6:40 AM EST 5:10 PM EST
Civil Twilight 6:11 AM EST 5:39 PM EST
Nautical Twilight 5:38 AM EST 6:11 PM EST
Astronomical Twilight 5:06 AM EST 6:44 PM EST
Moon 7:32 AM EST (2/12) 8:11 PM EST (2/12)
Length of Visible Light 11h 27m
Length of Day
10h 29m
Waxing Crescent, 7% of the Moon is Illuminated
Feb 12
Waxing Crescent
Feb 17
First Quarter
Feb 25
Full
Mar 4
Last Quarter
Mar 11
New

Hourly Weather History & Observations

Time (EST) Temp. Windchill Dew Point Humidity Pressure Visibility Wind Dir Wind Speed Gust Speed Precip Events Conditions
12:15 AM 44.6 °F 39.7 °F 41.0 °F 87% 29.61 in 1.2 mi SW 9.2 mph - N/A   Overcast
12:35 AM 42.8 °F 38.0 °F 39.2 °F 87% 29.61 in 1.0 mi WSW 8.1 mph - N/A   Overcast
12:55 AM 42.8 °F 38.6 °F 39.2 °F 87% 29.61 in 1.0 mi WSW 6.9 mph - N/A   Overcast
1:15 AM 42.8 °F 37.5 °F 39.2 °F 87% 29.61 in 0.8 mi West 9.2 mph - N/A   Overcast
1:35 AM 42.8 °F 37.5 °F 39.2 °F 87% 29.62 in 3.0 mi West 9.2 mph 16.1 mph N/A   Overcast
1:55 AM 42.8 °F 37.0 °F 39.2 °F 87% 29.62 in 10.0 mi WNW 10.4 mph - N/A   Overcast
2:15 AM 42.8 °F 38.6 °F 37.4 °F 81% 29.61 in 10.0 mi West 6.9 mph - N/A   Partly Cloudy
2:35 AM 41.0 °F 36.4 °F 37.4 °F 87% 29.61 in 10.0 mi West 6.9 mph - N/A   Clear
2:55 AM 41.0 °F 36.4 °F 37.4 °F 87% 29.61 in 10.0 mi West 6.9 mph - N/A   Clear
3:15 AM 39.2 °F 33.6 °F 37.4 °F 93% 29.61 in 10.0 mi West 8.1 mph - N/A   Clear
3:35 AM 39.2 °F 29.0 °F 33.8 °F 81% 29.61 in 10.0 mi WNW 21.9 mph 34.5 mph N/A   Clear
3:55 AM 39.2 °F 32.0 °F 32.0 °F 75% 29.63 in 10.0 mi West 11.5 mph 17.3 mph N/A   Clear
4:15 AM 39.2 °F 31.2 °F 32.0 °F 75% 29.63 in 10.0 mi West 13.8 mph 19.6 mph N/A   Scattered Clouds
4:35 AM 37.4 °F 27.8 °F 30.2 °F 75% 29.62 in 10.0 mi West 17.3 mph 25.3 mph N/A   Clear
4:55 AM 37.4 °F 27.2 °F 30.2 °F 75% 29.63 in 10.0 mi West 19.6 mph 29.9 mph N/A   Clear
5:15 AM 37.4 °F 26.6 °F 30.2 °F 75% 29.63 in 10.0 mi West 21.9 mph 29.9 mph N/A   Clear
5:35 AM 37.4 °F 27.5 °F 30.2 °F 75% 29.64 in 10.0 mi West 18.4 mph 27.6 mph N/A   Clear
5:55 AM 37.4 °F 27.5 °F 30.2 °F 75% 29.65 in 10.0 mi West 18.4 mph 26.5 mph N/A   Clear
6:15 AM 37.4 °F 27.5 °F 30.2 °F 75% 29.65 in 10.0 mi West 18.4 mph 24.2 mph N/A   Clear
6:35 AM 37.4 °F 27.2 °F 30.2 °F 75% 29.66 in 10.0 mi West 19.6 mph 25.3 mph N/A   Clear
6:55 AM 37.4 °F 27.5 °F 30.2 °F 75% 29.67 in 10.0 mi West 18.4 mph 25.3 mph N/A   Clear
7:15 AM 37.4 °F 29.3 °F 30.2 °F 75% 29.68 in 10.0 mi West 12.7 mph - N/A   Clear
7:35 AM 37.4 °F 28.5 °F 30.2 °F 75% 29.69 in 10.0 mi West 15.0 mph - N/A   Clear
7:55 AM 37.4 °F 28.5 °F 30.2 °F 75% 29.70 in 10.0 mi West 15.0 mph - N/A   Clear
8:15 AM 37.4 °F 27.8 °F 30.2 °F 75% 29.70 in 10.0 mi West 17.3 mph - N/A   Clear
8:35 AM 37.4 °F 28.2 °F 32.0 °F 81% 29.70 in 10.0 mi West 16.1 mph 20.7 mph N/A   Clear
8:55 AM 37.4 °F 29.3 °F 32.0 °F 81% 29.71 in 10.0 mi West 12.7 mph 19.6 mph N/A   Clear
9:15 AM 39.2 °F 31.2 °F 32.0 °F 75% 29.71 in 10.0 mi WSW 13.8 mph - N/A   Clear
9:35 AM 39.2 °F 31.6 °F 30.2 °F 70% 29.72 in 10.0 mi West 12.7 mph - N/A   Clear
9:55 AM 39.2 °F 30.5 °F 30.2 °F 70% 29.72 in 10.0 mi WSW 16.1 mph - N/A   Clear
10:15 AM 39.2 °F 30.5 °F 32.0 °F 75% 29.72 in 10.0 mi WSW 16.1 mph - N/A   Clear
10:35 AM 41.0 °F 33.5 °F 32.0 °F 70% 29.71 in 10.0 mi WSW 13.8 mph - N/A   Clear
10:55 AM 41.0 °F 32.8 °F 32.0 °F 70% 29.71 in 10.0 mi WSW 16.1 mph - N/A   Clear
11:15 AM 42.8 °F 35.8 °F 33.8 °F 70% 29.72 in 10.0 mi West 13.8 mph - N/A   Partly Cloudy
11:35 AM 42.8 °F 36.2 °F 32.0 °F 66% 29.71 in 10.0 mi West 12.7 mph - N/A   Scattered Clouds
11:55 AM 42.8 °F 36.6 °F 30.2 °F 61% 29.71 in 10.0 mi West 11.5 mph - N/A   Mostly Cloudy
12:15 PM 42.8 °F 36.6 °F 30.2 °F 61% 29.71 in 10.0 mi West 11.5 mph - N/A   Overcast
12:35 PM 42.8 °F 35.1 °F 28.4 °F 57% 29.71 in 10.0 mi West 16.1 mph 24.2 mph N/A   Mostly Cloudy
12:55 PM 44.6 °F 37.8 °F 30.2 °F 57% 29.72 in 10.0 mi West 15.0 mph 21.9 mph 0.01 in   Clear
1:15 PM 44.6 °F 37.8 °F 30.2 °F 57% 29.72 in 10.0 mi West 15.0 mph - N/A   Partly Cloudy
1:35 PM 44.6 °F 37.8 °F 30.2 °F 57% 29.72 in 10.0 mi West 15.0 mph 20.7 mph N/A   Partly Cloudy
1:55 PM 44.6 °F 37.4 °F 28.4 °F 53% 29.72 in 10.0 mi West 16.1 mph 21.9 mph N/A   Partly Cloudy
2:15 PM 42.8 °F 35.1 °F 30.2 °F 61% 29.73 in 10.0 mi West 16.1 mph 19.6 mph N/A   Partly Cloudy
2:35 PM 42.8 °F 35.4 °F 28.4 °F 57% 29.73 in 10.0 mi West 15.0 mph 18.4 mph N/A   Mostly Cloudy
2:55 PM 42.8 °F 36.6 °F 30.2 °F 61% 29.74 in 10.0 mi West 11.5 mph 19.6 mph N/A   Scattered Clouds
3:15 PM 42.8 °F 36.2 °F 30.2 °F 61% 29.74 in 10.0 mi West 12.7 mph - N/A   Mostly Cloudy
3:35 PM 41.0 °F 33.1 °F 30.2 °F 65% 29.75 in 10.0 mi West 15.0 mph - N/A   Overcast
3:55 PM 41.0 °F 32.8 °F 30.2 °F 65% 29.75 in 10.0 mi West 16.1 mph - N/A   Overcast
4:15 PM 41.0 °F 32.5 °F 28.4 °F 61% 29.75 in 10.0 mi West 17.3 mph 23.0 mph N/A   Overcast
4:35 PM 39.2 °F 30.8 °F 30.2 °F 70% 29.75 in 10.0 mi West 15.0 mph 23.0 mph N/A   Overcast
4:55 PM 39.2 °F 30.5 °F 30.2 °F 70% 29.75 in 10.0 mi West 16.1 mph 24.2 mph N/A   Overcast
5:15 PM 39.2 °F 30.5 °F 28.4 °F 65% 29.75 in 10.0 mi West 16.1 mph 21.9 mph N/A   Overcast
5:35 PM 39.2 °F 31.6 °F 30.2 °F 70% 29.77 in 10.0 mi West 12.7 mph - N/A   Overcast
5:55 PM 39.2 °F 32.0 °F 28.4 °F 65% 29.76 in 10.0 mi West 11.5 mph - N/A   Overcast
6:15 PM 39.2 °F 30.8 °F 30.2 °F 70% 29.76 in 10.0 mi WNW 15.0 mph - N/A   Overcast
6:35 PM 37.4 °F 30.8 °F 28.4 °F 70% 29.77 in 10.0 mi West 9.2 mph - N/A   Scattered Clouds
6:55 PM 37.4 °F 28.9 °F 30.2 °F 75% 29.78 in 10.0 mi West 13.8 mph - N/A   Clear
7:15 PM 37.4 °F 28.2 °F 28.4 °F 70% 29.79 in 10.0 mi West 16.1 mph - N/A   Clear
7:35 PM 37.4 °F 27.8 °F 28.4 °F 70% 29.82 in 10.0 mi West 17.3 mph 23.0 mph N/A   Clear
7:55 PM 37.4 °F 27.2 °F 30.2 °F 75% 29.84 in 10.0 mi West 19.6 mph 24.2 mph N/A   Clear
8:15 PM 37.4 °F 27.2 °F 28.4 °F 70% 29.86 in 10.0 mi West 19.6 mph 26.5 mph N/A   Clear
8:35 PM 37.4 °F 26.4 °F 30.2 °F 75% 29.87 in 10.0 mi West 23.0 mph 27.6 mph N/A   Clear
8:55 PM 37.4 °F 26.6 °F 28.4 °F 70% 29.87 in 10.0 mi West 21.9 mph 29.9 mph N/A   Clear
9:15 PM 37.4 °F 27.5 °F 28.4 °F 70% 29.86 in 10.0 mi West 18.4 mph 21.9 mph N/A   Clear
9:35 PM 37.4 °F 28.2 °F 28.4 °F 70% 29.85 in 10.0 mi West 16.1 mph 23.0 mph N/A   Clear
9:55 PM 37.4 °F 28.2 °F 28.4 °F 70% 29.84 in 10.0 mi West 16.1 mph 21.9 mph N/A   Clear
10:15 PM 37.4 °F 28.2 °F 28.4 °F 70% 29.83 in 10.0 mi West 16.1 mph - N/A   Clear
10:35 PM 37.4 °F 28.9 °F 28.4 °F 70% 29.84 in 10.0 mi West 13.8 mph - N/A   Clear
10:55 PM 35.6 °F 27.5 °F 30.2 °F 81% 29.84 in 10.0 mi West 11.5 mph - N/A   Clear
11:15 PM 35.6 °F 26.2 °F 28.4 °F 75% 29.82 in 10.0 mi West 15.0 mph 19.6 mph N/A   Clear
11:35 PM 35.6 °F 27.1 °F 28.4 °F 75% 29.82 in 10.0 mi West 12.7 mph - N/A   Clear
11:55 PM 35.6 °F 25.5 °F 28.4 °F 75% 29.83 in 10.0 mi West 17.3 mph 21.9 mph N/A   Clear